Datum;Richtung;Anzahl Messungen;Anzahl Fahrzeuge;Durchschnittsgeschwindigkeit;Hoechstgeschwindigkeit
17/07/2023 11:00;1;87;87;32.16;56.00
17/07/2023 11:30;1;119;119;30.15;56.00
17/07/2023 12:00;1;103;103;33.08;52.00
17/07/2023 12:30;1;114;114;33.42;49.00
17/07/2023 13:00;1;93;93;33.10;54.00
17/07/2023 13:30;1;119;119;32.30;59.00
17/07/2023 14:00;1;104;104;33.66;50.00
17/07/2023 14:30;1;73;73;28.70;45.00
17/07/2023 15:00;1;105;105;31.85;51.00
17/07/2023 15:30;1;103;103;31.17;47.00
17/07/2023 16:00;1;128;128;33.88;59.00
17/07/2023 16:30;1;126;126;31.02;50.00
17/07/2023 17:00;1;148;148;31.84;54.00
17/07/2023 17:30;1;145;145;32.84;53.00
17/07/2023 18:00;1;109;109;33.06;49.00
17/07/2023 18:30;1;106;106;32.48;51.00
17/07/2023 19:00;1;72;72;34.71;51.00
17/07/2023 19:30;1;80;80;34.70;56.00
17/07/2023 20:00;1;66;66;32.55;49.00
17/07/2023 20:30;1;61;61;35.80;50.00
17/07/2023 21:00;1;51;51;34.37;64.00
17/07/2023 21:30;1;52;52;32.54;66.00
17/07/2023 22:00;1;44;44;34.89;62.00
17/07/2023 22:30;1;28;28;34.29;67.00
17/07/2023 23:00;1;20;20;33.50;48.00
17/07/2023 23:30;1;21;21;39.38;60.00
18/07/2023 00:00;1;17;17;35.18;86.00
18/07/2023 00:30;1;5;5;29.80;48.00
18/07/2023 01:00;1;4;4;43.25;53.00
18/07/2023 01:30;1;5;5;39.20;49.00
18/07/2023 02:00;1;4;4;43.75;50.00
18/07/2023 02:30;1;3;3;37.67;49.00
18/07/2023 03:00;1;4;4;22.00;30.00
18/07/2023 03:30;1;2;2;22.00;23.00
18/07/2023 04:30;1;14;14;34.50;71.00
18/07/2023 05:00;1;10;10;33.00;47.00
18/07/2023 05:30;1;32;32;32.84;57.00
18/07/2023 06:00;1;43;43;37.58;77.00
18/07/2023 06:30;1;78;78;34.96;67.00
18/07/2023 07:00;1;113;113;34.33;59.00
18/07/2023 07:30;1;139;139;32.16;54.00
18/07/2023 08:00;1;136;136;31.99;52.00
18/07/2023 08:30;1;120;120;31.30;45.00
18/07/2023 09:00;1;111;111;32.40;52.00
18/07/2023 09:30;1;125;125;33.36;58.00
18/07/2023 10:00;1;127;127;31.94;48.00
18/07/2023 10:30;1;122;122;33.16;60.00
18/07/2023 11:00;1;118;118;32.22;50.00
18/07/2023 11:30;1;93;93;31.97;53.00
18/07/2023 12:00;1;91;91;31.11;45.00
18/07/2023 12:30;1;104;104;33.86;50.00
18/07/2023 13:00;1;106;106;32.07;56.00
18/07/2023 13:30;1;126;126;31.36;58.00
18/07/2023 14:00;1;93;93;32.45;61.00
18/07/2023 14:30;1;109;109;33.39;58.00
18/07/2023 15:00;1;123;123;31.92;47.00
18/07/2023 15:30;1;131;131;33.10;58.00
18/07/2023 16:00;1;132;132;33.67;51.00
18/07/2023 16:30;1;163;163;31.80;51.00
18/07/2023 17:00;1;143;143;30.78;65.00
18/07/2023 17:30;1;137;137;31.00;47.00
18/07/2023 18:00;1;100;100;32.62;48.00
18/07/2023 18:30;1;111;111;33.41;58.00
18/07/2023 19:00;1;86;86;33.79;50.00
18/07/2023 19:30;1;85;85;34.91;49.00
18/07/2023 20:00;1;67;67;34.15;55.00
18/07/2023 20:30;1;61;61;36.51;70.00
18/07/2023 21:00;1;59;59;37.07;62.00
18/07/2023 21:30;1;55;55;33.71;61.00
18/07/2023 22:00;1;44;44;34.45;74.00
18/07/2023 22:30;1;41;41;33.05;80.00
18/07/2023 23:00;1;17;17;36.29;70.00
18/07/2023 23:30;1;10;10;30.90;44.00
19/07/2023 00:00;1;15;15;38.20;49.00
19/07/2023 00:30;1;5;5;30.00;50.00
19/07/2023 01:00;1;9;9;37.22;53.00
19/07/2023 01:30;1;3;3;40.33;44.00
19/07/2023 02:00;1;4;4;30.75;39.00
19/07/2023 02:30;1;2;2;49.00;56.00
19/07/2023 03:00;1;4;4;25.00;35.00
19/07/2023 03:30;1;4;4;28.50;41.00
19/07/2023 04:00;1;2;2;29.00;36.00
19/07/2023 04:30;1;10;10;33.20;64.00
19/07/2023 05:00;1;12;12;35.17;47.00
19/07/2023 05:30;1;27;27;32.67;53.00
19/07/2023 06:00;1;45;45;34.18;58.00
19/07/2023 06:30;1;76;76;34.92;62.00
19/07/2023 07:00;1;95;95;33.80;52.00
19/07/2023 07:30;1;150;150;33.19;59.00
19/07/2023 08:00;1;106;106;32.02;50.00
19/07/2023 08:30;1;130;130;33.37;65.00
19/07/2023 09:00;1;92;92;31.45;50.00
19/07/2023 09:30;1;124;124;33.11;50.00
19/07/2023 10:00;1;105;105;33.53;48.00
19/07/2023 10:30;1;108;108;32.65;56.00
19/07/2023 11:00;1;104;104;32.31;53.00
19/07/2023 11:30;1;85;85;30.44;49.00
19/07/2023 12:00;1;103;103;34.11;59.00
19/07/2023 12:30;1;114;114;29.96;57.00
19/07/2023 13:00;1;64;64;27.73;46.00
19/07/2023 13:30;1;115;115;31.58;48.00
19/07/2023 14:00;1;98;98;30.58;48.00
19/07/2023 14:30;1;122;122;33.39;57.00
19/07/2023 15:00;1;96;96;33.12;47.00
19/07/2023 15:30;1;124;124;31.57;59.00
19/07/2023 16:00;1;102;102;32.75;49.00
19/07/2023 16:30;1;130;130;33.02;51.00
19/07/2023 17:00;1;143;143;33.78;67.00
19/07/2023 17:30;1;127;127;32.62;54.00
19/07/2023 18:00;1;97;97;32.81;49.00
19/07/2023 18:30;1;102;102;30.61;48.00
19/07/2023 19:00;1;83;83;35.48;69.00
19/07/2023 19:30;1;95;95;35.02;61.00
19/07/2023 20:00;1;64;64;32.16;50.00
19/07/2023 20:30;1;68;68;36.12;54.00
19/07/2023 21:00;1;63;63;35.35;57.00
19/07/2023 21:30;1;61;61;30.30;56.00
19/07/2023 22:00;1;65;65;34.38;54.00
19/07/2023 22:30;1;37;37;34.97;58.00
19/07/2023 23:00;1;28;28;34.57;75.00
19/07/2023 23:30;1;16;16;30.81;48.00
20/07/2023 00:00;1;16;16;37.56;50.00
20/07/2023 00:30;1;9;9;38.11;46.00
20/07/2023 01:00;1;9;9;36.00;57.00
20/07/2023 01:30;1;9;9;36.33;53.00
20/07/2023 02:00;1;4;4;43.25;55.00
20/07/2023 02:30;1;2;2;51.50;53.00
20/07/2023 03:00;1;4;4;27.00;36.00
20/07/2023 03:30;1;1;1;45.00;45.00
20/07/2023 04:00;1;2;2;37.50;43.00
20/07/2023 04:30;1;9;9;33.22;45.00
20/07/2023 05:00;1;15;15;38.53;67.00
20/07/2023 05:30;1;28;28;34.43;51.00
20/07/2023 06:00;1;34;34;32.85;55.00
20/07/2023 06:30;1;86;86;33.63;59.00
20/07/2023 07:00;1;105;105;31.07;57.00
20/07/2023 07:30;1;131;131;33.05;51.00
20/07/2023 08:00;1;113;113;34.07;56.00
20/07/2023 08:30;1;137;137;31.42;55.00
20/07/2023 09:00;1;94;94;33.67;54.00
20/07/2023 09:30;1;132;132;32.52;53.00
20/07/2023 10:00;1;117;117;32.06;49.00
20/07/2023 10:30;1;114;114;33.97;55.00
20/07/2023 11:00;1;99;99;33.51;54.00
20/07/2023 11:30;1;104;104;32.97;48.00
20/07/2023 12:00;1;113;113;32.04;62.00
20/07/2023 12:30;1;102;102;32.45;55.00
20/07/2023 13:00;1;91;91;32.98;53.00
20/07/2023 13:30;1;121;121;33.41;60.00
20/07/2023 14:00;1;95;95;33.89;50.00
20/07/2023 14:30;1;112;112;32.92;51.00
20/07/2023 15:00;1;121;121;33.25;51.00
20/07/2023 15:30;1;113;113;31.95;49.00
20/07/2023 16:00;1;136;136;31.66;51.00
20/07/2023 16:30;1;137;137;32.32;59.00
20/07/2023 17:00;1;134;134;33.52;54.00
20/07/2023 17:30;1;118;118;33.45;49.00
20/07/2023 18:00;1;124;124;33.90;56.00
20/07/2023 18:30;1;96;96;33.53;62.00
20/07/2023 19:00;1;89;89;34.21;58.00
20/07/2023 19:30;1;85;85;33.62;50.00
20/07/2023 20:00;1;67;67;34.18;63.00
20/07/2023 20:30;1;67;67;35.60;51.00
20/07/2023 21:00;1;57;57;36.09;57.00
20/07/2023 21:30;1;63;63;33.84;47.00
20/07/2023 22:00;1;53;53;37.79;58.00
20/07/2023 22:30;1;40;40;37.75;68.00
20/07/2023 23:00;1;20;20;36.35;63.00
20/07/2023 23:30;1;25;25;35.48;55.00
21/07/2023 00:00;1;21;21;37.95;54.00
21/07/2023 00:30;1;6;6;31.00;53.00
21/07/2023 01:00;1;9;9;35.33;49.00
21/07/2023 01:30;1;5;5;38.20;60.00
21/07/2023 02:00;1;6;6;34.17;48.00
21/07/2023 02:30;1;1;1;43.00;43.00
21/07/2023 03:00;1;7;7;37.14;47.00
21/07/2023 03:30;1;2;2;25.50;27.00
21/07/2023 04:30;1;12;12;36.25;72.00
21/07/2023 05:00;1;13;13;41.69;83.00
21/07/2023 05:30;1;36;36;35.06;52.00
21/07/2023 06:00;1;48;48;34.06;79.00
21/07/2023 06:30;1;77;77;35.12;52.00
21/07/2023 07:00;1;103;103;34.69;55.00
21/07/2023 07:30;1;117;117;32.74;50.00
21/07/2023 08:00;1;133;133;33.49;49.00
21/07/2023 08:30;1;140;140;31.45;52.00
21/07/2023 09:00;1;101;101;34.68;49.00
21/07/2023 09:30;1;111;111;32.42;46.00
21/07/2023 10:00;1;107;107;32.87;59.00
21/07/2023 10:30;1;119;119;31.59;50.00
21/07/2023 11:00;1;122;122;32.39;54.00
21/07/2023 11:30;1;117;117;32.86;48.00
21/07/2023 12:00;1;103;103;31.76;50.00
21/07/2023 12:30;1;114;114;33.71;47.00
21/07/2023 13:00;1;134;134;32.87;51.00
21/07/2023 13:30;1;116;116;34.39;53.00
21/07/2023 14:00;1;125;125;34.95;57.00
21/07/2023 14:30;1;127;127;33.26;51.00
21/07/2023 15:00;1;124;124;33.08;49.00
21/07/2023 15:30;1;122;122;34.48;51.00
21/07/2023 16:00;1;138;138;32.89;51.00
21/07/2023 16:30;1;125;125;32.33;50.00
21/07/2023 17:00;1;130;130;33.44;55.00
21/07/2023 17:30;1;128;128;31.67;45.00
21/07/2023 18:00;1;110;110;33.19;56.00
21/07/2023 18:30;1;104;104;33.49;64.00
21/07/2023 19:00;1;90;90;33.50;58.00
21/07/2023 19:30;1;67;67;35.49;57.00
21/07/2023 20:00;1;87;87;32.64;49.00
21/07/2023 20:30;1;70;70;38.94;74.00
21/07/2023 21:00;1;64;64;33.28;58.00
21/07/2023 21:30;1;49;49;35.92;65.00
21/07/2023 22:00;1;56;56;34.66;49.00
21/07/2023 22:30;1;49;49;33.86;56.00
21/07/2023 23:00;1;37;37;30.51;54.00
21/07/2023 23:30;1;27;27;35.15;59.00
22/07/2023 00:00;1;17;17;33.94;48.00
22/07/2023 00:30;1;15;15;34.47;51.00
22/07/2023 01:00;1;21;21;38.76;64.00
22/07/2023 01:30;1;8;8;40.88;69.00
22/07/2023 02:00;1;13;13;37.62;52.00
22/07/2023 02:30;1;5;5;27.60;47.00
22/07/2023 03:00;1;4;4;24.00;40.00
22/07/2023 03:30;1;3;3;44.67;66.00
22/07/2023 04:00;1;8;8;47.00;63.00
22/07/2023 04:30;1;12;12;40.75;74.00
22/07/2023 05:00;1;10;10;42.60;58.00
22/07/2023 05:30;1;24;24;34.25;52.00
22/07/2023 06:00;1;26;26;35.54;65.00
22/07/2023 06:30;1;36;36;35.75;51.00
22/07/2023 07:00;1;40;40;33.20;50.00
22/07/2023 07:30;1;43;43;36.53;63.00
22/07/2023 08:00;1;66;66;34.86;69.00
22/07/2023 08:30;1;82;82;34.18;49.00
22/07/2023 09:00;1;71;71;33.83;61.00
22/07/2023 09:30;1;88;88;33.65;48.00
22/07/2023 10:00;1;77;77;31.04;45.00
22/07/2023 10:30;1;98;98;31.06;79.00
22/07/2023 11:00;1;123;123;33.64;53.00
22/07/2023 11:30;1;119;119;33.65;51.00
22/07/2023 12:00;1;97;97;33.15;57.00
22/07/2023 12:30;1;123;123;33.48;52.00
22/07/2023 13:00;1;102;102;33.98;63.00
22/07/2023 13:30;1;94;94;35.11;56.00
22/07/2023 14:00;1;92;92;33.90;54.00
22/07/2023 14:30;1;104;104;33.26;47.00
22/07/2023 15:00;1;88;88;34.16;50.00
22/07/2023 15:30;1;97;97;33.73;52.00
22/07/2023 16:00;1;94;94;32.97;52.00
22/07/2023 16:30;1;92;92;35.42;60.00
22/07/2023 17:00;1;88;88;32.20;54.00
22/07/2023 17:30;1;120;120;33.31;63.00
22/07/2023 18:00;1;94;94;34.13;54.00
22/07/2023 18:30;1;82;82;34.54;60.00
22/07/2023 19:00;1;85;85;33.61;50.00
22/07/2023 19:30;1;78;78;34.78;60.00
22/07/2023 20:00;1;62;62;33.39;55.00
22/07/2023 20:30;1;85;85;33.11;51.00
22/07/2023 21:00;1;54;54;35.76;66.00
22/07/2023 21:30;1;63;63;35.89;58.00
22/07/2023 22:00;1;60;60;34.58;57.00
22/07/2023 22:30;1;58;58;34.53;50.00
22/07/2023 23:00;1;43;43;34.74;51.00
22/07/2023 23:30;1;31;31;34.61;48.00
23/07/2023 00:00;1;42;42;36.95;54.00
23/07/2023 00:30;1;30;30;33.40;66.00
23/07/2023 01:00;1;27;27;36.93;63.00
23/07/2023 01:30;1;10;10;35.50;65.00
23/07/2023 02:00;1;18;18;40.72;48.00
23/07/2023 02:30;1;10;10;43.80;69.00
23/07/2023 03:00;1;7;7;37.86;65.00
23/07/2023 03:30;1;16;16;30.50;45.00
23/07/2023 04:00;1;16;16;37.94;61.00
23/07/2023 04:30;1;10;10;26.00;39.00
23/07/2023 05:00;1;13;13;38.15;59.00
23/07/2023 05:30;1;21;21;33.71;52.00
23/07/2023 06:00;1;13;13;36.85;65.00
23/07/2023 06:30;1;21;21;32.43;65.00
23/07/2023 07:00;1;18;18;27.00;49.00
23/07/2023 07:30;1;21;21;40.10;56.00
23/07/2023 08:00;1;20;20;35.05;56.00
23/07/2023 08:30;1;30;30;32.13;47.00
23/07/2023 09:00;1;55;55;35.09;51.00
23/07/2023 09:30;1;60;60;34.05;60.00
23/07/2023 10:00;1;74;74;36.23;55.00
23/07/2023 10:30;1;76;76;35.55;49.00
23/07/2023 11:00;1;93;93;34.12;50.00
23/07/2023 11:30;1;70;70;36.53;56.00
23/07/2023 12:00;1;73;73;36.26;61.00
23/07/2023 12:30;1;77;77;34.42;54.00
23/07/2023 13:00;1;93;93;36.96;51.00
23/07/2023 13:30;1;96;96;34.06;52.00
23/07/2023 14:00;1;73;73;34.99;60.00
23/07/2023 14:30;1;87;87;35.08;66.00
23/07/2023 15:00;1;71;71;34.06;55.00
23/07/2023 15:30;1;78;78;35.83;66.00
23/07/2023 16:00;1;80;80;34.62;60.00
23/07/2023 16:30;1;90;90;34.89;50.00
23/07/2023 17:00;1;106;106;35.25;56.00
23/07/2023 17:30;1;118;118;35.53;83.00
23/07/2023 18:00;1;95;95;35.04;60.00
23/07/2023 18:30;1;103;103;35.85;64.00
23/07/2023 19:00;1;90;90;35.17;61.00
23/07/2023 19:30;1;93;93;36.90;63.00
23/07/2023 20:00;1;84;84;36.79;61.00
23/07/2023 20:30;1;77;77;36.58;67.00
23/07/2023 21:00;1;62;62;35.06;57.00
23/07/2023 21:30;1;68;68;35.04;54.00
23/07/2023 22:00;1;50;50;35.82;60.00
23/07/2023 22:30;1;32;32;35.38;49.00
23/07/2023 23:00;1;21;21;32.95;48.00
23/07/2023 23:30;1;18;18;35.94;63.00
24/07/2023 00:00;1;10;10;45.00;73.00
24/07/2023 00:30;1;8;8;38.88;75.00
24/07/2023 01:00;1;14;14;35.50;52.00
24/07/2023 01:30;1;2;2;29.50;31.00
24/07/2023 02:00;1;6;6;37.00;51.00
24/07/2023 02:30;1;2;2;25.00;33.00
24/07/2023 03:00;1;6;6;27.83;35.00
24/07/2023 03:30;1;2;2;37.00;51.00
24/07/2023 04:00;1;2;2;34.50;44.00
24/07/2023 04:30;1;12;12;39.75;77.00
24/07/2023 05:00;1;11;11;39.00;48.00
24/07/2023 05:30;1;42;42;36.74;55.00
24/07/2023 06:00;1;41;41;37.00;56.00
24/07/2023 06:30;1;84;84;34.12;54.00
24/07/2023 07:00;1;71;71;36.97;53.00
24/07/2023 07:30;1;101;101;35.42;59.00
24/07/2023 08:00;1;150;150;32.57;53.00
24/07/2023 08:30;1;143;143;33.57;59.00
24/07/2023 09:00;1;108;108;30.27;51.00
24/07/2023 09:30;1;111;111;32.57;47.00
24/07/2023 10:00;1;98;98;34.43;58.00
24/07/2023 10:30;1;104;104;31.84;49.00
24/07/2023 11:00;1;109;109;34.85;52.00
24/07/2023 11:30;1;112;112;32.78;51.00
24/07/2023 12:00;1;123;123;34.48;61.00
24/07/2023 12:30;1;121;121;32.16;60.00
24/07/2023 13:00;1;99;99;32.33;51.00
24/07/2023 13:30;1;94;94;33.30;51.00
24/07/2023 14:00;1;126;126;34.58;54.00
24/07/2023 14:30;1;108;108;32.94;53.00
24/07/2023 15:00;1;130;130;31.90;53.00
24/07/2023 15:30;1;124;124;33.98;57.00
24/07/2023 16:00;1;126;126;32.00;52.00
24/07/2023 16:30;1;138;138;32.74;51.00
24/07/2023 17:00;1;132;132;32.95;53.00
24/07/2023 17:30;1;133;133;31.18;46.00
24/07/2023 18:00;1;99;99;33.16;49.00
24/07/2023 18:30;1;120;120;35.14;53.00
24/07/2023 19:00;1;86;86;35.62;55.00
24/07/2023 19:30;1;79;79;34.42;50.00
24/07/2023 20:00;1;60;60;35.48;53.00
24/07/2023 20:30;1;45;45;34.60;62.00
24/07/2023 21:00;1;70;70;34.10;62.00
24/07/2023 21:30;1;54;54;35.39;73.00
24/07/2023 22:00;1;33;33;34.36;59.00
24/07/2023 22:30;1;35;35;40.31;66.00
24/07/2023 23:00;1;14;14;34.36;47.00
24/07/2023 23:30;1;9;9;32.11;50.00
25/07/2023 00:00;1;8;8;43.62;57.00
25/07/2023 00:30;1;9;9;35.56;49.00
25/07/2023 01:00;1;8;8;30.12;41.00
25/07/2023 01:30;1;5;5;33.00;47.00
25/07/2023 02:00;1;4;4;28.75;41.00
25/07/2023 02:30;1;3;3;36.33;59.00
25/07/2023 03:00;1;3;3;30.67;35.00
25/07/2023 03:30;1;1;1;26.00;26.00
25/07/2023 04:00;1;1;1;33.00;33.00
25/07/2023 04:30;1;7;7;30.57;64.00
25/07/2023 05:00;1;15;15;34.67;47.00
25/07/2023 05:30;1;38;38;35.34;58.00
25/07/2023 06:00;1;31;31;38.58;58.00
25/07/2023 06:30;1;70;70;35.09;54.00
25/07/2023 07:00;1;97;97;34.24;56.00
25/07/2023 07:30;1;140;140;34.00;56.00
25/07/2023 08:00;1;126;126;33.78;53.00
25/07/2023 08:30;1;126;126;33.13;46.00
25/07/2023 09:00;1;127;127;32.32;50.00
25/07/2023 09:30;1;96;96;31.82;48.00
25/07/2023 10:00;1;102;102;30.70;47.00
25/07/2023 10:30;1;111;111;32.09;55.00
25/07/2023 11:00;1;105;105;33.03;55.00
25/07/2023 11:30;1;101;101;32.77;48.00
25/07/2023 12:00;1;114;114;34.64;59.00
25/07/2023 12:30;1;119;119;33.92;55.00
25/07/2023 13:00;1;107;107;32.64;52.00
25/07/2023 13:30;1;124;124;32.75;49.00
25/07/2023 14:00;1;122;122;32.70;50.00
25/07/2023 14:30;1;120;120;32.63;47.00
25/07/2023 15:00;1;136;136;32.98;55.00
25/07/2023 15:30;1;129;129;31.86;52.00
25/07/2023 16:00;1;129;129;33.80;53.00
25/07/2023 16:30;1;188;188;33.24;57.00
25/07/2023 17:00;1;178;178;32.75;51.00
25/07/2023 17:30;1;181;181;33.21;52.00
25/07/2023 18:00;1;145;145;32.68;50.00
25/07/2023 18:30;1;156;156;33.22;55.00
25/07/2023 19:00;1;113;113;35.22;53.00
25/07/2023 19:30;1;93;93;34.70;62.00
25/07/2023 20:00;1;60;60;36.45;69.00
25/07/2023 20:30;1;73;73;36.27;58.00
25/07/2023 21:00;1;63;63;35.60;55.00
25/07/2023 21:30;1;47;47;35.87;48.00
25/07/2023 22:00;1;38;38;36.71;52.00
25/07/2023 22:30;1;25;25;34.40;43.00
25/07/2023 23:00;1;18;18;35.72;85.00
25/07/2023 23:30;1;9;9;38.67;53.00
26/07/2023 00:00;1;16;16;37.62;50.00
26/07/2023 00:30;1;10;10;28.70;37.00
26/07/2023 01:00;1;10;10;35.10;44.00
26/07/2023 01:30;1;4;4;53.75;61.00
26/07/2023 02:00;1;4;4;31.75;46.00
26/07/2023 02:30;1;5;5;38.20;57.00
26/07/2023 03:00;1;3;3;37.33;45.00
26/07/2023 04:00;1;4;4;35.25;55.00
26/07/2023 04:30;1;11;11;37.82;76.00
26/07/2023 05:00;1;16;16;39.12;52.00
26/07/2023 05:30;1;43;43;35.05;50.00
26/07/2023 06:00;1;46;46;37.22;54.00
26/07/2023 06:30;1;76;76;35.70;51.00
26/07/2023 07:00;1;98;98;34.01;59.00
26/07/2023 07:30;1;144;144;34.10;58.00
26/07/2023 08:00;1;122;122;31.39;47.00
26/07/2023 08:30;1;110;110;33.65;56.00
26/07/2023 09:00;1;110;110;31.26;49.00
26/07/2023 09:30;1;114;114;33.58;55.00
26/07/2023 10:00;1;98;98;33.60;52.00
26/07/2023 10:30;1;115;115;32.11;62.00
26/07/2023 11:00;1;108;108;33.17;55.00
26/07/2023 11:30;1;110;110;31.95;49.00
26/07/2023 12:00;1;114;114;35.04;62.00
26/07/2023 12:30;1;103;103;32.49;55.00
26/07/2023 13:00;1;100;100;32.70;49.00
26/07/2023 13:30;1;113;113;32.42;76.00
26/07/2023 14:00;1;41;41;31.61;45.00
26/07/2023 14:30;1;33;33;33.21;46.00
26/07/2023 15:00;1;122;122;31.93;50.00
26/07/2023 15:30;1;113;113;33.14;59.00
26/07/2023 16:00;1;112;112;32.29;48.00
26/07/2023 16:30;1;118;118;34.03;57.00
26/07/2023 17:00;1;129;129;33.05;50.00
26/07/2023 17:30;1;125;125;33.45;69.00
26/07/2023 18:00;1;131;131;34.08;51.00
26/07/2023 18:30;1;105;105;34.41;78.00
26/07/2023 19:00;1;84;84;35.44;61.00
26/07/2023 19:30;1;85;85;34.18;56.00
26/07/2023 20:00;1;63;63;34.22;57.00
26/07/2023 20:30;1;68;68;34.32;48.00
26/07/2023 21:00;1;64;64;37.53;80.00
26/07/2023 21:30;1;55;55;33.82;48.00
26/07/2023 22:00;1;47;47;34.98;47.00
26/07/2023 22:30;1;37;37;38.68;54.00
26/07/2023 23:00;1;14;14;38.14;59.00
26/07/2023 23:30;1;24;24;40.54;57.00
27/07/2023 00:00;1;17;17;42.00;67.00
27/07/2023 00:30;1;7;7;40.71;46.00
27/07/2023 01:00;1;4;4;26.75;41.00
27/07/2023 01:30;1;11;11;35.18;57.00
27/07/2023 02:00;1;2;2;24.50;25.00
27/07/2023 02:30;1;8;8;36.00;58.00
27/07/2023 03:00;1;3;3;33.00;39.00
27/07/2023 03:30;1;6;6;41.33;56.00
27/07/2023 04:00;1;6;6;39.83;53.00
27/07/2023 04:30;1;10;10;33.50;62.00
27/07/2023 05:00;1;10;10;35.40;47.00
27/07/2023 05:30;1;42;42;35.36;55.00
27/07/2023 06:00;1;39;39;35.64;62.00
27/07/2023 06:30;1;53;53;37.42;51.00
27/07/2023 07:00;1;76;76;34.62;51.00
27/07/2023 07:30;1;119;119;32.42;47.00
27/07/2023 08:00;1;105;105;34.10;52.00
27/07/2023 08:30;1;124;124;33.89;53.00
27/07/2023 09:00;1;97;97;32.11;54.00
27/07/2023 09:30;1;108;108;31.51;57.00
27/07/2023 10:00;1;92;92;31.25;50.00
27/07/2023 10:30;1;115;115;33.53;52.00
27/07/2023 11:00;1;89;89;31.47;46.00
27/07/2023 11:30;1;105;105;32.01;46.00
27/07/2023 12:00;1;97;97;33.08;51.00
27/07/2023 12:30;1;99;99;32.09;54.00
27/07/2023 13:00;1;112;112;33.34;50.00
27/07/2023 13:30;1;117;117;31.16;48.00
27/07/2023 14:00;1;119;119;31.50;55.00
27/07/2023 14:30;1;126;126;31.57;53.00
27/07/2023 15:00;1;118;118;33.10;50.00
27/07/2023 15:30;1;104;104;32.67;56.00
27/07/2023 16:00;1;129;129;33.57;53.00
27/07/2023 16:30;1;127;127;33.84;51.00
27/07/2023 17:00;1;144;144;31.89;56.00
27/07/2023 17:30;1;132;132;33.80;48.00
27/07/2023 18:00;1;122;122;32.82;51.00
27/07/2023 18:30;1;103;103;35.65;68.00
27/07/2023 19:00;1;97;97;33.49;60.00
27/07/2023 19:30;1;88;88;34.98;50.00
27/07/2023 20:00;1;68;68;35.19;66.00
27/07/2023 20:30;1;89;89;34.31;55.00
27/07/2023 21:00;1;55;55;32.47;52.00
27/07/2023 21:30;1;55;55;33.56;46.00
27/07/2023 22:00;1;47;47;37.00;75.00
27/07/2023 22:30;1;35;35;37.43;79.00
27/07/2023 23:00;1;10;10;37.90;50.00
27/07/2023 23:30;1;12;12;36.17;55.00
28/07/2023 00:00;1;17;17;33.94;63.00
28/07/2023 00:30;1;16;16;33.75;52.00
28/07/2023 01:00;1;8;8;32.75;40.00
28/07/2023 01:30;1;13;13;39.15;60.00
28/07/2023 02:00;1;7;7;39.29;74.00
28/07/2023 02:30;1;5;5;39.00;46.00
28/07/2023 03:00;1;7;7;30.86;50.00
28/07/2023 03:30;1;3;3;29.67;33.00
28/07/2023 04:00;1;7;7;39.57;65.00
28/07/2023 04:30;1;10;10;36.30;80.00
28/07/2023 05:00;1;11;11;36.55;47.00
28/07/2023 05:30;1;33;33;37.03;52.00
28/07/2023 06:00;1;50;50;36.36;55.00
28/07/2023 06:30;1;81;81;36.00;69.00
28/07/2023 07:00;1;81;81;33.25;50.00
28/07/2023 07:30;1;111;111;35.22;59.00
28/07/2023 08:00;1;101;101;33.18;67.00
28/07/2023 08:30;1;97;97;33.18;57.00
28/07/2023 09:00;1;107;107;31.72;50.00
28/07/2023 09:30;1;92;92;31.57;48.00
28/07/2023 10:00;1;116;116;32.48;50.00
28/07/2023 10:30;1;125;125;33.36;56.00
28/07/2023 11:00;1;100;100;34.10;49.00
28/07/2023 11:30;1;135;135;31.74;48.00
28/07/2023 12:00;1;126;126;34.89;79.00
28/07/2023 12:30;1;96;96;32.56;49.00
28/07/2023 13:00;1;107;107;33.08;51.00
28/07/2023 13:30;1;112;112;34.27;64.00
28/07/2023 14:00;1;111;111;33.35;53.00
28/07/2023 14:30;1;111;111;32.50;59.00
28/07/2023 15:00;1;117;117;32.03;53.00
28/07/2023 15:30;1;96;96;32.76;55.00
28/07/2023 16:00;1;108;108;32.75;47.00
28/07/2023 16:30;1;102;102;33.47;54.00
28/07/2023 17:00;1;113;113;34.31;55.00
28/07/2023 17:30;1;65;65;36.97;53.00
28/07/2023 18:00;1;127;127;34.07;57.00
28/07/2023 18:30;1;95;95;33.56;55.00
28/07/2023 19:00;1;85;85;35.62;97.00
28/07/2023 19:30;1;65;65;35.75;68.00
28/07/2023 20:00;1;63;63;34.83;51.00
28/07/2023 20:30;1;75;75;36.37;80.00
28/07/2023 21:00;1;45;45;34.67;73.00
28/07/2023 21:30;1;56;56;32.61;56.00
28/07/2023 22:00;1;52;52;33.73;51.00
28/07/2023 22:30;1;44;44;34.75;60.00
28/07/2023 23:00;1;34;34;35.29;52.00
28/07/2023 23:30;1;22;22;34.86;47.00
29/07/2023 00:00;1;25;25;37.16;50.00
29/07/2023 00:30;1;14;14;40.21;73.00
29/07/2023 01:00;1;9;9;37.33;53.00
29/07/2023 01:30;1;16;16;38.81;58.00
29/07/2023 02:00;1;11;11;41.73;57.00
29/07/2023 02:30;1;6;6;36.67;48.00
29/07/2023 03:00;1;5;5;48.20;73.00
29/07/2023 03:30;1;8;8;40.75;95.00
29/07/2023 04:00;1;7;7;42.00;58.00
29/07/2023 04:30;1;5;5;29.80;42.00
29/07/2023 05:00;1;3;3;34.33;42.00
29/07/2023 05:30;1;24;24;39.29;64.00
29/07/2023 06:00;1;21;21;31.05;50.00
29/07/2023 06:30;1;35;35;35.03;65.00
29/07/2023 07:00;1;40;40;34.90;50.00
29/07/2023 07:30;1;53;53;35.94;55.00
29/07/2023 08:00;1;52;52;35.71;57.00
29/07/2023 08:30;1;94;94;34.24;52.00
29/07/2023 09:00;1;77;77;33.60;47.00
29/07/2023 09:30;1;76;76;32.84;54.00
29/07/2023 10:00;1;75;75;35.44;48.00
29/07/2023 10:30;1;90;90;34.37;56.00
29/07/2023 11:00;1;98;98;33.12;48.00
29/07/2023 11:30;1;108;108;33.61;55.00
29/07/2023 12:00;1;101;101;32.33;50.00
29/07/2023 12:30;1;122;122;33.38;55.00
29/07/2023 13:00;1;113;113;34.48;60.00
29/07/2023 13:30;1;108;108;34.27;60.00
29/07/2023 14:00;1;98;98;32.57;48.00
29/07/2023 14:30;1;118;118;35.19;57.00
29/07/2023 15:00;1;95;95;32.34;45.00
29/07/2023 15:30;1;71;71;34.01;50.00
29/07/2023 16:00;1;87;87;34.46;50.00
29/07/2023 16:30;1;85;85;36.22;53.00
29/07/2023 17:00;1;90;90;35.11;55.00
29/07/2023 17:30;1;88;88;32.31;54.00
29/07/2023 18:00;1;78;78;36.79;54.00
29/07/2023 18:30;1;90;90;34.69;48.00
29/07/2023 19:00;1;97;97;36.11;66.00
29/07/2023 19:30;1;70;70;36.17;52.00
29/07/2023 20:00;1;68;68;34.60;51.00
29/07/2023 20:30;1;37;37;35.14;56.00
29/07/2023 21:00;1;53;53;38.51;73.00
29/07/2023 21:30;1;37;37;32.38;49.00
29/07/2023 22:00;1;55;55;34.80;54.00
29/07/2023 22:30;1;27;27;38.48;52.00
29/07/2023 23:00;1;23;23;38.22;49.00
29/07/2023 23:30;1;25;25;40.00;76.00
30/07/2023 00:00;1;19;19;37.79;63.00
30/07/2023 00:30;1;21;21;33.95;54.00
30/07/2023 01:00;1;15;15;37.27;64.00
30/07/2023 01:30;1;14;14;37.57;82.00
30/07/2023 02:00;1;6;6;33.00;46.00
30/07/2023 02:30;1;6;6;37.50;57.00
30/07/2023 03:00;1;11;11;35.00;55.00
30/07/2023 03:30;1;4;4;39.25;58.00
30/07/2023 04:00;1;4;4;25.25;48.00
30/07/2023 04:30;1;8;8;38.00;58.00
30/07/2023 05:00;1;7;7;39.57;46.00
30/07/2023 05:30;1;15;15;38.27;61.00
30/07/2023 06:00;1;11;11;34.55;44.00
30/07/2023 06:30;1;16;16;33.62;57.00
30/07/2023 07:00;1;18;18;33.94;49.00
30/07/2023 07:30;1;29;29;31.83;48.00
30/07/2023 08:00;1;20;20;32.45;50.00
30/07/2023 08:30;1;30;30;35.30;47.00
30/07/2023 09:00;1;55;55;35.16;64.00
30/07/2023 09:30;1;56;56;34.98;51.00
30/07/2023 10:00;1;55;55;33.96;48.00
30/07/2023 10:30;1;74;74;35.50;55.00
30/07/2023 11:00;1;79;79;36.51;59.00
30/07/2023 11:30;1;64;64;34.83;53.00
30/07/2023 12:00;1;72;72;38.06;79.00
30/07/2023 12:30;1;87;87;35.11;68.00
30/07/2023 13:00;1;76;76;37.67;57.00
30/07/2023 13:30;1;75;75;35.45;59.00
30/07/2023 14:00;1;76;76;34.82;77.00
30/07/2023 14:30;1;80;80;32.52;82.00
30/07/2023 15:00;1;71;71;31.83;48.00
30/07/2023 15:30;1;75;75;34.35;79.00
30/07/2023 16:00;1;81;81;36.99;60.00
30/07/2023 16:30;1;87;87;33.29;49.00
30/07/2023 17:00;1;76;76;33.96;49.00
30/07/2023 17:30;1;98;98;34.65;55.00
30/07/2023 18:00;1;92;92;35.93;74.00
30/07/2023 18:30;1;84;84;33.36;51.00
30/07/2023 19:00;1;96;96;35.89;64.00
30/07/2023 19:30;1;89;89;36.52;62.00